Flag for Canada Weather past 2 weeks in Campbell River, British Columbia, Canada

Now
84 °F

Passing clouds.


Feels Like: 82 °F
Forecast: 56 / 78 °F
Wind: 8 mph from Northeast

Location: Campbell River Airport

Current Time: Aug 22, 2014 at 4:44:48 PM

Latest Report: Aug 22, 2014 at 4:00 PM


Visibility: 30 mi

Pressure: 30.04 "Hg

Humidity: 25%

Dew point: 45 °F

Location of Campbell RiverLocation

Historic Weather in Campbell River — Graph

°F

Campbell River temperature yesterday

Maximum temperature yesterday: 72 °F (at 2:00 PM)
Minimum temperature yesterday: 52 °F (at 6:00 AM)
Average temperature yesterday: 65 °F

Past Weeks' High & Low Weather Summary

 TemperatureHumidityPressure
High90 °F (Aug 10, 5:00 PM)100% (Aug 14, 6:00 AM)30.17 "Hg (Aug 14, 6:00 AM)
Low52 °F (Aug 9, 6:00 AM)24% (Aug 10, 6:00 PM)29.78 "Hg (Aug 19, 6:00 PM)
Average70 °F61%30.00 "Hg
* Reported Aug 7 3:00 PM — Aug 22 3:00 PM, Campbell River, Weather by CustomWeather, © 2014

Note: Actual official high and low records may vary slightly from our data, if they occured in-between our weather recording intervals... More about our weather records

Advertising

Campbell River weather history for previous 24 hours

 ConditionsComfort  
Time TempWeatherWind HumidityBarometerVisibility
3:00 PM
Aug 22
82 °FPassing clouds.3 mph25%30.05 "Hg30 mi
2:00 PM81 °FPassing clouds.6 mph30%30.06 "Hg30 mi
1:00 PM79 °FSunny.5 mph42%30.06 "Hg30 mi
12:00 PM75 °FSunny.8 mph44%30.07 "Hg30 mi
11:00 AM70 °FSunny.8 mph53%30.07 "Hg30 mi
10:00 AM66 °FPassing clouds.8 mph60%30.08 "Hg30 mi
9:00 AM61 °FPassing clouds.9 mph72%30.07 "Hg30 mi
8:00 AM57 °FPassing clouds.7 mph77%30.08 "Hg30 mi
7:00 AM55 °FPassing clouds.10 mph77%30.06 "Hg30 mi
6:00 AM54 °FClear.12 mph82%30.05 "Hg30 mi
9:00 PM
Aug 21
63 °FPassing clouds.3 mph77%29.98 "Hg30 mi
8:00 PM64 °FPassing clouds.2 mph68%29.96 "Hg30 mi
7:00 PM72 °FPassing clouds.3 mph53%29.96 "Hg30 mi
6:00 PM72 °FPassing clouds.6 mph53%29.96 "Hg30 mi
5:00 PM72 °FPassing clouds.7 mph53%29.96 "Hg30 mi
4:00 PM72 °FPassing clouds.8 mph53%29.96 "Hg30 mi
Weather by CustomWeather, © 2014

See weather overviewHow to use our weather pages